Location: Ellerstadt
(49.4644°N, 8.2615°E)
Time: 00:07:53
(UTC+00:00)

Gbstr 26 Del rocket - Pass Details

Date: 03 March 2021
Orbit: 492 x 1264 km, 51.8° (Epoch: 13 April)

Event Time Altitude Azimuth Distance (km) Brightness Sun altitude
Rises 18:07:33 0° 262° (W) 2,747 8.5 -9.6°
Reaches altitude 10° 18:09:37 10° 264° (W) 1,926 7.2 -10.0°
Maximum altitude 18:13:59 73° 350° (N) 709 3.4 -10.7°
Enters shadow 18:18:38 14° 74° (ENE) 2,077 5.2 -11.4°
